Time,TemperatureF,DewpointF,PressureIn,WindDirection,WindDirectionDegrees,WindSpeedMPH,WindSpeedGustMPH,Humidity,HourlyPrecipIn,Conditions,Clouds,dailyrainin,SoftwareType,DateUTC
2017-10-22 00:02:00,56.8,54.0,29.98,NNE,22,14.9,15.0,92,0.00,,,0.00,Rainwise IP-100,2017-10-22 05:02:00,
2017-10-22 00:07:00,56.7,54.0,29.99,NNE,22,10.5,18.0,92,0.00,,,0.00,Rainwise IP-100,2017-10-22 05:07:00,
2017-10-22 00:12:00,56.7,54.0,30.00,NNE,22,9.6,14.0,92,0.00,,,0.00,Rainwise IP-100,2017-10-22 05:12:00,
2017-10-22 00:17:00,56.6,54.0,29.99,NNE,22,13.8,13.8,92,0.00,,,0.00,Rainwise IP-100,2017-10-22 05:17:00,
2017-10-22 00:22:00,56.5,54.0,29.96,NNE,22,9.3,14.0,92,0.06,,,0.01,Rainwise IP-100,2017-10-22 05:22:00,
2017-10-22 00:27:00,56.4,54.0,29.95,ENE,67,12.4,18.0,92,0.12,,,0.02,Rainwise IP-100,2017-10-22 05:27:00,
2017-10-22 00:32:00,56.3,53.0,29.93,ENE,67,12.4,17.0,92,0.06,,,0.02,Rainwise IP-100,2017-10-22 05:32:00,
2017-10-22 00:37:00,56.2,53.0,29.92,ENE,67,13.3,22.0,92,0.06,,,0.03,Rainwise IP-100,2017-10-22 05:37:00,
2017-10-22 00:42:00,56.2,53.0,29.95,ENE,67,9.8,20.0,91,0.06,,,0.03,Rainwise IP-100,2017-10-22 05:42:00,
2017-10-22 00:47:00,56.1,53.0,29.96,NNE,22,14.0,16.0,91,0.00,,,0.03,Rainwise IP-100,2017-10-22 05:47:00,
2017-10-22 00:52:00,56.0,53.0,29.96,NNE,22,10.5,19.0,91,0.00,,,0.03,Rainwise IP-100,2017-10-22 05:52:00,
2017-10-22 00:57:00,56.0,53.0,29.96,ENE,67,12.4,21.0,90,0.00,,,0.03,Rainwise IP-100,2017-10-22 05:57:00,
2017-10-22 01:02:00,56.0,53.0,29.97,NNE,22,7.2,15.0,90,0.00,,,0.03,Rainwise IP-100,2017-10-22 06:02:00,
2017-10-22 01:07:00,55.9,53.0,29.99,NNE,22,5.6,15.0,89,0.00,,,0.03,Rainwise IP-100,2017-10-22 06:07:00,
2017-10-22 01:09:00,55.8,53.0,29.99,NNE,22,11.7,14.0,89,0.00,,,0.03,Rainwise IP-100,2017-10-22 06:09:00,
2017-10-22 01:18:00,55.7,53.0,30.02,NNW,337,10.5,10.5,89,0.00,,,0.03,Rainwise IP-100,2017-10-22 06:18:00,
2017-10-22 01:23:00,55.7,53.0,30.02,NNE,22,7.0,11.0,89,0.00,,,0.03,Rainwise IP-100,2017-10-22 06:23:00,
2017-10-22 01:28:00,55.6,53.0,30.01,North,360,8.4,9.0,89,0.00,,,0.03,Rainwise IP-100,2017-10-22 06:28:00,
2017-10-22 01:33:00,55.5,53.0,30.01,NNE,22,7.9,11.0,89,0.00,,,0.03,Rainwise IP-100,2017-10-22 06:33:00,
2017-10-22 01:38:00,55.4,52.0,30.01,NNE,22,9.8,10.0,89,0.00,,,0.03,Rainwise IP-100,2017-10-22 06:38:00,
2017-10-22 01:44:00,55.3,52.0,30.02,NNE,22,10.0,14.0,89,0.00,,,0.03,Rainwise IP-100,2017-10-22 06:44:00,
2017-10-22 01:49:00,55.2,52.0,30.02,NNE,22,11.4,14.0,89,0.00,,,0.03,Rainwise IP-100,2017-10-22 06:49:00,
2017-10-22 01:54:00,55.0,53.0,30.02,North,360,11.2,11.2,90,0.00,,,0.03,Rainwise IP-100,2017-10-22 06:54:00,
2017-10-22 01:59:00,55.0,53.0,30.03,North,360,11.7,15.0,90,0.00,,,0.03,Rainwise IP-100,2017-10-22 06:59:00,
2017-10-22 02:04:00,55.0,53.0,30.02,North,360,9.1,11.0,90,0.00,,,0.03,Rainwise IP-100,2017-10-22 07:04:00,
2017-10-22 02:09:00,54.8,52.0,30.02,NNE,22,10.7,14.0,90,0.00,,,0.03,Rainwise IP-100,2017-10-22 07:09:00,
2017-10-22 02:14:00,54.8,52.0,30.03,NNE,22,7.7,13.0,90,0.00,,,0.03,Rainwise IP-100,2017-10-22 07:14:00,
2017-10-22 02:19:00,54.7,51.0,30.04,NNE,22,6.5,13.0,89,0.00,,,0.03,Rainwise IP-100,2017-10-22 07:19:00,
2017-10-22 02:24:00,54.7,51.0,30.05,North,360,10.3,18.0,89,0.00,,,0.03,Rainwise IP-100,2017-10-22 07:24:00,
2017-10-22 02:29:00,54.7,51.0,30.04,NNE,22,7.9,16.0,89,0.00,,,0.03,Rainwise IP-100,2017-10-22 07:29:00,
2017-10-22 02:34:00,54.6,51.0,30.04,NNE,22,7.7,13.0,89,0.00,,,0.03,Rainwise IP-100,2017-10-22 07:34:00,
2017-10-22 02:39:00,54.6,51.0,30.04,NE,45,11.0,14.0,89,0.00,,,0.03,Rainwise IP-100,2017-10-22 07:39:00,
2017-10-22 02:44:00,54.6,51.0,30.05,NNE,22,8.4,12.0,89,0.00,,,0.03,Rainwise IP-100,2017-10-22 07:44:00,
2017-10-22 02:49:00,54.5,51.0,30.05,NNE,22,9.8,10.0,89,0.00,,,0.03,Rainwise IP-100,2017-10-22 07:49:00,
2017-10-22 02:54:00,54.5,51.0,30.04,NNW,337,9.3,12.0,89,0.00,,,0.03,Rainwise IP-100,2017-10-22 07:54:00,
2017-10-22 02:59:00,54.4,51.0,30.04,NNE,22,9.6,13.0,89,0.00,,,0.03,Rainwise IP-100,2017-10-22 07:59:00,
2017-10-22 03:04:00,54.4,51.0,30.05,NNE,22,7.9,12.0,89,0.00,,,0.03,Rainwise IP-100,2017-10-22 08:04:00,
2017-10-22 03:09:00,54.3,50.0,30.05,NNE,22,12.8,12.8,89,0.00,,,0.03,Rainwise IP-100,2017-10-22 08:09:00,
2017-10-22 03:14:00,54.1,50.0,30.05,NNE,22,9.3,12.0,89,0.00,,,0.03,Rainwise IP-100,2017-10-22 08:14:00,
2017-10-22 03:19:00,54.0,50.0,30.05,NNE,22,9.3,15.0,89,0.00,,,0.03,Rainwise IP-100,2017-10-22 08:19:00,
2017-10-22 03:24:00,53.9,50.0,30.05,NNE,22,9.1,12.0,88,0.00,,,0.03,Rainwise IP-100,2017-10-22 08:24:00,
2017-10-22 03:29:00,53.8,50.0,30.05,NNE,22,10.7,13.0,88,0.00,,,0.03,Rainwise IP-100,2017-10-22 08:29:00,
2017-10-22 03:34:00,53.7,50.0,30.06,NNE,22,4.9,11.0,88,0.00,,,0.03,Rainwise IP-100,2017-10-22 08:34:00,
2017-10-22 03:39:00,53.7,50.0,30.06,NNE,22,6.3,11.0,88,0.00,,,0.03,Rainwise IP-100,2017-10-22 08:39:00,
2017-10-22 03:44:00,53.6,50.0,30.07,NNE,22,6.3,9.0,88,0.00,,,0.03,Rainwise IP-100,2017-10-22 08:44:00,
2017-10-22 03:49:00,53.6,50.0,30.07,NNE,22,5.6,9.0,88,0.00,,,0.03,Rainwise IP-100,2017-10-22 08:49:00,
2017-10-22 03:54:00,53.5,50.0,30.07,NNE,22,5.1,8.0,88,0.00,,,0.03,Rainwise IP-100,2017-10-22 08:54:00,
2017-10-22 03:59:00,53.4,50.0,30.08,NNE,22,5.6,7.0,88,0.00,,,0.03,Rainwise IP-100,2017-10-22 08:59:00,
2017-10-22 04:04:00,53.3,49.0,30.08,North,360,4.9,9.0,88,0.00,,,0.03,Rainwise IP-100,2017-10-22 09:04:00,
2017-10-22 04:09:00,53.2,49.0,30.09,North,360,3.3,7.0,88,0.00,,,0.03,Rainwise IP-100,2017-10-22 09:09:00,
2017-10-22 04:14:00,53.0,50.0,30.09,NNW,337,4.7,7.0,89,0.00,,,0.03,Rainwise IP-100,2017-10-22 09:14:00,
2017-10-22 04:19:00,52.9,50.0,30.09,NNW,337,4.2,7.0,89,0.00,,,0.03,Rainwise IP-100,2017-10-22 09:19:00,
2017-10-22 04:24:00,52.7,50.0,30.10,NNW,337,4.9,7.0,89,0.00,,,0.03,Rainwise IP-100,2017-10-22 09:24:00,
2017-10-22 04:29:00,52.6,50.0,30.09,NNW,337,5.1,7.0,90,0.00,,,0.03,Rainwise IP-100,2017-10-22 09:29:00,
2017-10-22 04:34:00,52.4,49.0,30.09,North,360,6.5,8.0,90,0.00,,,0.03,Rainwise IP-100,2017-10-22 09:34:00,
2017-10-22 04:39:00,52.2,49.0,30.09,North,360,4.9,8.0,90,0.00,,,0.03,Rainwise IP-100,2017-10-22 09:39:00,
2017-10-22 04:44:00,52.1,49.0,30.09,North,360,5.4,9.0,91,0.00,,,0.03,Rainwise IP-100,2017-10-22 09:44:00,
2017-10-22 04:49:00,52.0,49.0,30.09,NNW,337,5.6,8.0,91,0.00,,,0.03,Rainwise IP-100,2017-10-22 09:49:00,
2017-10-22 04:54:00,52.0,49.0,30.10,NNW,337,5.1,7.0,91,0.00,,,0.03,Rainwise IP-100,2017-10-22 09:54:00,
2017-10-22 04:59:00,51.8,49.0,30.10,NNE,22,4.4,7.0,91,0.00,,,0.03,Rainwise IP-100,2017-10-22 09:59:00,
2017-10-22 05:04:00,51.7,49.0,30.10,North,360,6.5,7.0,91,0.00,,,0.03,Rainwise IP-100,2017-10-22 10:04:00,
2017-10-22 05:09:00,51.7,49.0,30.10,NNW,337,7.9,7.9,91,0.00,,,0.03,Rainwise IP-100,2017-10-22 10:09:00,
2017-10-22 05:14:00,51.6,50.0,30.10,NNW,337,7.7,8.0,92,0.00,,,0.03,Rainwise IP-100,2017-10-22 10:14:00,
2017-10-22 05:19:00,51.5,50.0,30.10,NNW,337,4.4,8.0,92,0.00,,,0.03,Rainwise IP-100,2017-10-22 10:19:00,
2017-10-22 05:24:00,51.4,49.0,30.10,NNW,337,5.1,8.0,92,0.00,,,0.03,Rainwise IP-100,2017-10-22 10:24:00,
2017-10-22 05:29:00,51.3,49.0,30.10,NNW,337,5.4,7.0,92,0.00,,,0.03,Rainwise IP-100,2017-10-22 10:29:00,
2017-10-22 05:34:00,51.2,49.0,30.11,NNW,337,4.7,7.0,92,0.00,,,0.03,Rainwise IP-100,2017-10-22 10:34:00,
2017-10-22 05:39:00,51.1,49.0,30.10,NNW,337,4.7,7.0,93,0.00,,,0.03,Rainwise IP-100,2017-10-22 10:39:00,
2017-10-22 05:44:00,51.0,49.0,30.10,NNW,337,4.4,6.0,93,0.00,,,0.03,Rainwise IP-100,2017-10-22 10:44:00,
2017-10-22 05:49:00,50.9,49.0,30.10,NNW,337,4.2,7.0,93,0.00,,,0.03,Rainwise IP-100,2017-10-22 10:49:00,
2017-10-22 05:54:00,50.9,49.0,30.11,NNW,337,5.4,7.0,93,0.00,,,0.03,Rainwise IP-100,2017-10-22 10:54:00,
2017-10-22 05:59:00,50.9,49.0,30.11,NNW,337,7.2,8.0,93,0.00,,,0.03,Rainwise IP-100,2017-10-22 10:59:00,
2017-10-22 06:04:00,50.9,49.0,30.11,NNW,337,5.1,7.0,93,0.00,,,0.03,Rainwise IP-100,2017-10-22 11:04:00,
2017-10-22 06:09:00,50.9,49.0,30.11,NNW,337,4.0,8.0,93,0.00,,,0.03,Rainwise IP-100,2017-10-22 11:09:00,
2017-10-22 06:14:00,50.9,50.0,30.12,NNW,337,5.6,7.0,94,0.00,,,0.03,Rainwise IP-100,2017-10-22 11:14:00,
2017-10-22 06:19:00,50.9,50.0,30.12,NNW,337,5.8,7.0,94,0.00,,,0.03,Rainwise IP-100,2017-10-22 11:19:00,
2017-10-22 06:24:00,50.9,50.0,30.13,NNW,337,4.2,6.0,94,0.00,,,0.03,Rainwise IP-100,2017-10-22 11:24:00,
2017-10-22 06:29:00,50.9,50.0,30.13,NNW,337,3.0,7.0,94,0.00,,,0.03,Rainwise IP-100,2017-10-22 11:29:00,
2017-10-22 06:34:00,50.9,50.0,30.13,NNW,337,3.5,6.0,94,0.00,,,0.03,Rainwise IP-100,2017-10-22 11:34:00,
2017-10-22 06:39:00,50.8,49.0,30.13,NNW,337,3.7,5.0,94,0.00,,,0.03,Rainwise IP-100,2017-10-22 11:39:00,
2017-10-22 06:44:00,50.7,49.0,30.13,NNW,337,4.7,6.0,94,0.00,,,0.03,Rainwise IP-100,2017-10-22 11:44:00,
2017-10-22 06:49:00,50.6,49.0,30.13,NNW,337,4.7,5.0,94,0.00,,,0.03,Rainwise IP-100,2017-10-22 11:49:00,
2017-10-22 06:54:00,50.6,49.0,30.13,NNW,337,3.5,6.0,94,0.00,,,0.03,Rainwise IP-100,2017-10-22 11:54:00,
2017-10-22 06:59:00,50.6,49.0,30.13,NNW,337,4.9,7.0,94,0.00,,,0.03,Rainwise IP-100,2017-10-22 11:59:00,
2017-10-22 07:04:00,50.6,49.0,30.15,NNW,337,3.7,7.0,94,0.00,,,0.03,Rainwise IP-100,2017-10-22 12:04:00,
2017-10-22 07:09:00,50.7,49.0,30.14,NNW,337,6.1,7.0,94,0.00,,,0.03,Rainwise IP-100,2017-10-22 12:09:00,
2017-10-22 07:14:00,50.7,49.0,30.14,NW,315,3.0,7.0,94,0.00,,,0.03,Rainwise IP-100,2017-10-22 12:14:00,
2017-10-22 07:19:00,50.7,49.0,30.14,NNW,337,4.9,6.0,94,0.00,,,0.03,Rainwise IP-100,2017-10-22 12:19:00,
2017-10-22 07:24:00,50.6,49.0,30.14,NNW,337,6.3,7.0,94,0.00,,,0.03,Rainwise IP-100,2017-10-22 12:24:00,
2017-10-22 07:29:00,50.4,49.0,30.15,NNW,337,5.6,7.0,94,0.00,,,0.03,Rainwise IP-100,2017-10-22 12:29:00,
2017-10-22 07:34:00,50.1,48.0,30.15,NNW,337,5.8,7.0,94,0.00,,,0.03,Rainwise IP-100,2017-10-22 12:34:00,
2017-10-22 07:39:00,50.0,48.0,30.15,WNW,292,4.4,7.0,94,0.00,,,0.03,Rainwise IP-100,2017-10-22 12:39:00,
2017-10-22 07:44:00,49.8,48.0,30.15,NW,315,6.1,6.1,95,0.00,,,0.03,Rainwise IP-100,2017-10-22 12:44:00,
2017-10-22 07:49:00,49.8,48.0,30.15,NNW,337,4.7,7.0,95,0.00,,,0.03,Rainwise IP-100,2017-10-22 12:49:00,
2017-10-22 07:54:00,49.7,48.0,30.15,NNW,337,4.2,8.0,95,0.00,,,0.03,Rainwise IP-100,2017-10-22 12:54:00,
2017-10-22 07:59:00,49.4,47.0,30.15,NNW,337,4.7,7.0,95,0.00,,,0.03,Rainwise IP-100,2017-10-22 12:59:00,
2017-10-22 08:04:00,49.2,47.0,30.16,NNW,337,2.3,7.0,95,0.00,,,0.03,Rainwise IP-100,2017-10-22 13:04:00,
2017-10-22 08:09:00,49.1,47.0,30.15,NNW,337,3.5,5.0,95,0.00,,,0.03,Rainwise IP-100,2017-10-22 13:09:00,
2017-10-22 08:14:00,49.0,47.0,30.15,NNW,337,5.1,6.0,95,0.00,,,0.03,Rainwise IP-100,2017-10-22 13:14:00,
2017-10-22 08:19:00,49.0,47.0,30.15,NNW,337,5.6,7.0,95,0.00,,,0.03,Rainwise IP-100,2017-10-22 13:19:00,
2017-10-22 08:21:00,48.9,47.0,30.15,NNW,337,3.3,7.0,95,0.00,,,0.03,Rainwise IP-100,2017-10-22 13:21:00,
2017-10-22 08:26:00,49.0,47.0,30.15,NNW,337,4.4,6.0,95,0.00,,,0.03,Rainwise IP-100,2017-10-22 13:26:00,
2017-10-22 08:31:00,49.1,47.0,30.16,NNW,337,4.0,7.0,94,0.00,,,0.03,Rainwise IP-100,2017-10-22 13:31:00,
2017-10-22 08:36:00,49.4,47.0,30.16,NNW,337,6.5,9.0,93,0.00,,,0.03,Rainwise IP-100,2017-10-22 13:36:00,
2017-10-22 08:41:00,49.7,47.0,30.17,NNW,337,4.4,8.0,92,0.00,,,0.03,Rainwise IP-100,2017-10-22 13:41:00,
2017-10-22 08:46:00,50.1,47.0,30.17,NNW,337,4.7,9.0,91,0.00,,,0.03,Rainwise IP-100,2017-10-22 13:46:00,
2017-10-22 08:51:00,50.4,47.0,30.17,NNW,337,5.8,7.0,89,0.00,,,0.03,Rainwise IP-100,2017-10-22 13:51:00,
2017-10-22 08:56:00,50.7,47.0,30.17,NNW,337,8.6,8.6,88,0.00,,,0.03,Rainwise IP-100,2017-10-22 13:56:00,
2017-10-22 09:01:00,51.2,47.0,30.17,NNW,337,7.9,10.0,85,0.00,,,0.03,Rainwise IP-100,2017-10-22 14:01:00,
2017-10-22 09:06:00,51.5,47.0,30.18,NW,315,5.8,9.0,84,0.00,,,0.03,Rainwise IP-100,2017-10-22 14:06:00,
2017-10-22 09:11:00,51.8,47.0,30.18,NNW,337,7.5,9.0,83,0.00,,,0.03,Rainwise IP-100,2017-10-22 14:11:00,
2017-10-22 09:16:00,52.2,47.0,30.18,NNW,337,5.8,9.0,82,0.00,,,0.03,Rainwise IP-100,2017-10-22 14:16:00,
2017-10-22 09:21:00,52.4,47.0,30.18,NNW,337,9.1,9.1,81,0.00,,,0.03,Rainwise IP-100,2017-10-22 14:21:00,
2017-10-22 09:26:00,52.8,47.0,30.18,NNW,337,9.3,9.3,80,0.00,,,0.03,Rainwise IP-100,2017-10-22 14:26:00,
2017-10-22 09:31:00,53.2,47.0,30.19,NNW,337,7.7,10.0,79,0.00,,,0.03,Rainwise IP-100,2017-10-22 14:31:00,
2017-10-22 09:36:00,53.5,47.0,30.19,NNW,337,8.4,9.0,78,0.00,,,0.03,Rainwise IP-100,2017-10-22 14:36:00,
2017-10-22 09:41:00,53.7,47.0,30.19,NNW,337,8.2,10.0,78,0.00,,,0.03,Rainwise IP-100,2017-10-22 14:41:00,
2017-10-22 09:46:00,53.9,47.0,30.19,NNW,337,4.7,9.0,77,0.00,,,0.03,Rainwise IP-100,2017-10-22 14:46:00,
2017-10-22 09:51:00,54.2,47.0,30.19,NNW,337,7.7,11.0,76,0.00,,,0.03,Rainwise IP-100,2017-10-22 14:51:00,
2017-10-22 09:56:00,54.4,47.0,30.19,WNW,292,5.6,11.0,75,0.00,,,0.03,Rainwise IP-100,2017-10-22 14:56:00,
2017-10-22 10:01:00,54.7,47.0,30.19,NNW,337,6.5,11.0,75,0.00,,,0.03,Rainwise IP-100,2017-10-22 15:01:00,
2017-10-22 10:02:00,54.7,47.0,30.19,NNW,337,10.3,11.0,75,0.00,,,0.03,Rainwise IP-100,2017-10-22 15:02:00,
2017-10-22 10:07:00,54.8,47.0,30.20,NNW,337,9.8,10.0,74,0.00,,,0.03,Rainwise IP-100,2017-10-22 15:07:00,
2017-10-22 10:12:00,55.2,47.0,30.20,NNW,337,5.1,10.0,73,0.00,,,0.03,Rainwise IP-100,2017-10-22 15:12:00,
2017-10-22 10:17:00,55.5,47.0,30.20,NNW,337,7.5,11.0,72,0.00,,,0.03,Rainwise IP-100,2017-10-22 15:17:00,
2017-10-22 10:22:00,55.7,47.0,30.20,NNW,337,8.4,8.4,72,0.00,,,0.03,Rainwise IP-100,2017-10-22 15:22:00,
2017-10-22 10:27:00,56.1,47.0,30.21,NNW,337,7.7,8.0,71,0.00,,,0.03,Rainwise IP-100,2017-10-22 15:27:00,
2017-10-22 10:32:00,56.3,47.0,30.21,North,360,9.8,9.8,71,0.00,,,0.03,Rainwise IP-100,2017-10-22 15:32:00,
2017-10-22 10:37:00,56.3,47.0,30.21,NNW,337,12.6,12.6,70,0.00,,,0.03,Rainwise IP-100,2017-10-22 15:37:00,
2017-10-22 10:42:00,56.3,47.0,30.21,NNW,337,12.6,12.6,70,0.00,,,0.03,Rainwise IP-100,2017-10-22 15:42:00,
2017-10-22 14:17:00,65.8,40.0,30.18,NNW,337,4.4,4.4,40,0.00,,,0.00,Rainwise IP-100,2017-10-22 19:17:00,
2017-10-22 14:22:00,66.1,41.0,30.18,North,360,4.7,8.0,41,0.00,,,0.00,Rainwise IP-100,2017-10-22 19:22:00,
2017-10-22 14:27:00,66.8,41.0,30.17,North,360,7.0,8.0,40,0.00,,,0.00,Rainwise IP-100,2017-10-22 19:27:00,
2017-10-22 14:32:00,67.3,42.0,30.17,NNW,337,7.5,7.5,40,0.00,,,0.00,Rainwise IP-100,2017-10-22 19:32:00,
2017-10-22 14:37:00,67.3,41.0,30.17,NNW,337,5.1,9.0,39,0.00,,,0.00,Rainwise IP-100,2017-10-22 19:37:00,
2017-10-22 14:42:00,66.5,41.0,30.17,WNW,292,4.4,7.0,39,0.00,,,0.00,Rainwise IP-100,2017-10-22 19:42:00,
2017-10-22 14:47:00,66.3,41.0,30.17,NNW,337,9.3,9.3,40,0.00,,,0.00,Rainwise IP-100,2017-10-22 19:47:00,
2017-10-22 14:52:00,66.6,41.0,30.17,NNW,337,8.2,10.0,40,0.00,,,0.00,Rainwise IP-100,2017-10-22 19:52:00,
2017-10-22 14:57:00,66.6,41.0,30.17,NNW,337,8.2,8.2,40,0.00,,,0.00,Rainwise IP-100,2017-10-22 19:57:00,
2017-10-22 15:02:00,66.5,41.0,30.17,WNW,292,7.5,9.0,39,0.00,,,0.00,Rainwise IP-100,2017-10-22 20:02:00,
2017-10-22 15:07:00,67.4,41.0,30.17,NNE,22,5.4,8.0,38,0.00,,,0.00,Rainwise IP-100,2017-10-22 20:07:00,
2017-10-22 15:12:00,67.8,41.0,30.16,NNW,337,3.0,8.0,38,0.00,,,0.00,Rainwise IP-100,2017-10-22 20:12:00,
2017-10-22 15:17:00,67.6,41.0,30.17,NNW,337,7.0,7.0,38,0.00,,,0.00,Rainwise IP-100,2017-10-22 20:17:00,
2017-10-22 15:22:00,66.8,40.0,30.16,NNW,337,5.6,7.0,38,0.00,,,0.00,Rainwise IP-100,2017-10-22 20:22:00,
2017-10-22 15:27:00,67.4,41.0,30.16,North,360,5.8,7.0,38,0.00,,,0.00,Rainwise IP-100,2017-10-22 20:27:00,
2017-10-22 15:32:00,68.4,42.0,30.16,NNE,22,6.3,8.0,38,0.00,,,0.00,Rainwise IP-100,2017-10-22 20:32:00,
2017-10-22 15:37:00,68.7,41.0,30.16,NNW,337,4.2,8.0,37,0.00,,,0.00,Rainwise IP-100,2017-10-22 20:37:00,
2017-10-22 15:42:00,68.9,41.0,30.16,NW,315,4.9,6.0,36,0.00,,,0.00,Rainwise IP-100,2017-10-22 20:42:00,
2017-10-22 15:47:00,69.1,40.0,30.15,NNW,337,8.2,8.2,35,0.00,,,0.00,Rainwise IP-100,2017-10-22 20:47:00,
2017-10-22 15:48:00,69.1,40.0,30.16,NNW,337,2.6,8.0,35,0.00,,,0.00,Rainwise IP-100,2017-10-22 20:48:00,
2017-10-22 15:53:00,69.2,41.0,30.15,NNE,22,3.5,5.0,36,0.00,,,0.00,Rainwise IP-100,2017-10-22 20:53:00,
2017-10-22 15:58:00,69.4,41.0,30.15,NNW,337,2.8,8.0,36,0.00,,,0.00,Rainwise IP-100,2017-10-22 20:58:00,
2017-10-22 16:03:00,69.3,40.0,30.15,NNW,337,3.7,7.0,35,0.00,,,0.00,Rainwise IP-100,2017-10-22 21:03:00,
2017-10-22 16:08:00,69.4,40.0,30.15,NNW,337,6.1,9.0,35,0.00,,,0.00,Rainwise IP-100,2017-10-22 21:08:00,
2017-10-22 16:13:00,69.2,40.0,30.15,NNW,337,1.4,8.0,35,0.00,,,0.00,Rainwise IP-100,2017-10-22 21:13:00,
2017-10-22 16:18:00,68.6,40.0,30.15,NNE,22,0.0,8.0,35,0.00,,,0.00,Rainwise IP-100,2017-10-22 21:18:00,
2017-10-22 16:23:00,68.6,40.0,30.15,NNE,22,3.0,6.0,35,0.00,,,0.00,Rainwise IP-100,2017-10-22 21:23:00,
2017-10-22 16:28:00,69.2,41.0,30.15,North,360,5.4,7.0,36,0.00,,,0.00,Rainwise IP-100,2017-10-22 21:28:00,
2017-10-22 16:33:00,69.5,41.0,30.15,NNE,22,4.0,7.0,35,0.00,,,0.00,Rainwise IP-100,2017-10-22 21:33:00,
2017-10-22 16:38:00,69.6,40.0,30.15,NNW,337,3.3,4.0,34,0.00,,,0.00,Rainwise IP-100,2017-10-22 21:38:00,
2017-10-22 16:43:00,69.7,39.0,30.14,NNW,337,4.2,6.0,33,0.00,,,0.00,Rainwise IP-100,2017-10-22 21:43:00,
2017-10-22 16:48:00,69.6,39.0,30.15,NNW,337,4.4,5.0,33,0.00,,,0.00,Rainwise IP-100,2017-10-22 21:48:00,
2017-10-22 16:53:00,69.4,38.0,30.15,NNW,337,3.0,7.0,32,0.00,,,0.00,Rainwise IP-100,2017-10-22 21:53:00,
2017-10-22 16:58:00,69.5,38.0,30.14,NNW,337,3.5,4.0,32,0.00,,,0.00,Rainwise IP-100,2017-10-22 21:58:00,
2017-10-22 17:03:00,69.4,39.0,30.14,WNW,292,1.2,3.0,34,0.00,,,0.00,Rainwise IP-100,2017-10-22 22:03:00,
2017-10-22 17:09:00,69.3,39.0,30.14,NNW,337,1.6,3.0,34,0.00,,,0.00,Rainwise IP-100,2017-10-22 22:09:00,
2017-10-22 17:14:00,69.4,39.0,30.14,NNE,22,3.5,6.0,34,0.00,,,0.00,Rainwise IP-100,2017-10-22 22:14:00,
2017-10-22 17:19:00,69.6,39.0,30.14,NNE,22,4.0,4.0,33,0.00,,,0.00,Rainwise IP-100,2017-10-22 22:19:00,
2017-10-22 17:24:00,69.9,39.0,30.14,NNE,22,2.3,4.0,33,0.00,,,0.00,Rainwise IP-100,2017-10-22 22:24:00,
2017-10-22 17:29:00,70.5,39.0,30.14,NW,315,0.0,2.0,32,0.00,,,0.00,Rainwise IP-100,2017-10-22 22:29:00,
2017-10-22 17:34:00,70.9,40.0,30.13,NNW,337,2.1,2.1,33,0.00,,,0.00,Rainwise IP-100,2017-10-22 22:34:00,
2017-10-22 17:39:00,71.2,40.0,30.13,NNW,337,0.0,2.0,33,0.00,,,0.00,Rainwise IP-100,2017-10-22 22:39:00,
2017-10-22 17:44:00,71.3,40.0,30.13,NNW,337,0.0,0.0,33,0.00,,,0.00,Rainwise IP-100,2017-10-22 22:44:00,
2017-10-22 17:49:00,71.5,41.0,30.13,NNW,337,0.0,0.0,33,0.00,,,0.00,Rainwise IP-100,2017-10-22 22:49:00,
2017-10-22 17:54:00,72.0,42.0,30.13,NNW,337,0.0,1.0,34,0.00,,,0.00,Rainwise IP-100,2017-10-22 22:54:00,
2017-10-22 17:59:00,72.1,41.0,30.13,NNW,337,0.0,0.0,33,0.00,,,0.00,Rainwise IP-100,2017-10-22 22:59:00,
2017-10-22 18:04:00,71.7,40.0,30.13,NNW,337,0.0,0.0,32,0.00,,,0.00,Rainwise IP-100,2017-10-22 23:04:00,
2017-10-22 18:09:00,71.0,40.0,30.13,ESE,112,2.3,2.3,33,0.00,,,0.00,Rainwise IP-100,2017-10-22 23:09:00,
2017-10-22 18:14:00,69.6,41.0,30.13,ESE,112,1.2,2.0,35,0.00,,,0.00,Rainwise IP-100,2017-10-22 23:14:00,
2017-10-22 18:19:00,68.6,42.0,30.13,ESE,112,1.4,2.0,38,0.00,,,0.00,Rainwise IP-100,2017-10-22 23:19:00,
2017-10-22 18:24:00,67.9,42.0,30.13,ESE,112,1.6,2.0,39,0.00,,,0.00,Rainwise IP-100,2017-10-22 23:24:00,
2017-10-22 18:29:00,67.2,42.0,30.13,ESE,112,1.4,1.4,40,0.00,,,0.00,Rainwise IP-100,2017-10-22 23:29:00,
2017-10-22 18:34:00,66.5,43.0,30.13,ESE,112,1.2,1.2,43,0.00,,,0.00,Rainwise IP-100,2017-10-22 23:34:00,
2017-10-22 18:39:00,65.8,43.0,30.13,ESE,112,1.2,1.2,44,0.00,,,0.00,Rainwise IP-100,2017-10-22 23:39:00,
2017-10-22 18:44:00,64.9,44.0,30.13,ESE,112,1.6,1.6,46,0.00,,,0.00,Rainwise IP-100,2017-10-22 23:44:00,
2017-10-22 18:49:00,64.2,44.0,30.13,ESE,112,1.6,1.6,48,0.00,,,0.00,Rainwise IP-100,2017-10-22 23:49:00,
2017-10-22 18:54:00,63.4,45.0,30.13,ESE,112,1.6,2.0,51,0.00,,,0.00,Rainwise IP-100,2017-10-22 23:54:00,
2017-10-22 18:59:00,62.4,47.0,30.13,ESE,112,1.9,2.0,56,0.00,,,0.00,Rainwise IP-100,2017-10-22 23:59:00,
2017-10-22 19:04:00,61.2,46.0,30.13,ESE,112,1.9,2.0,57,0.00,,,0.00,Rainwise IP-100,2017-10-23 00:04:00,
2017-10-22 19:09:00,60.2,45.0,30.13,ESE,112,1.6,1.6,58,0.00,,,0.00,Rainwise IP-100,2017-10-23 00:09:00,
2017-10-22 19:14:00,59.4,46.0,30.13,SE,135,2.1,2.1,60,0.00,,,0.00,Rainwise IP-100,2017-10-23 00:14:00,
2017-10-22 19:19:00,58.6,47.0,30.14,SE,135,2.1,2.1,63,0.00,,,0.00,Rainwise IP-100,2017-10-23 00:19:00,
2017-10-22 19:24:00,58.0,47.0,30.13,SE,135,2.1,2.1,65,0.00,,,0.00,Rainwise IP-100,2017-10-23 00:24:00,
2017-10-22 19:29:00,57.5,47.0,30.13,SE,135,2.6,3.0,66,0.00,,,0.00,Rainwise IP-100,2017-10-23 00:29:00,
2017-10-22 19:34:00,56.9,46.0,30.13,SE,135,2.1,2.1,67,0.00,,,0.00,Rainwise IP-100,2017-10-23 00:34:00,
2017-10-22 19:39:00,56.5,46.0,30.13,SE,135,1.9,2.0,67,0.00,,,0.00,Rainwise IP-100,2017-10-23 00:39:00,
2017-10-22 19:44:00,56.2,45.0,30.14,SE,135,2.3,2.3,67,0.00,,,0.00,Rainwise IP-100,2017-10-23 00:44:00,
2017-10-22 19:49:00,55.9,45.0,30.13,SSE,157,1.2,2.0,67,0.00,,,0.00,Rainwise IP-100,2017-10-23 00:49:00,
2017-10-22 19:54:00,55.4,46.0,30.13,SSE,157,1.2,2.0,70,0.00,,,0.00,Rainwise IP-100,2017-10-23 00:54:00,
2017-10-22 19:59:00,55.1,47.0,30.14,SSE,157,2.1,2.1,73,0.00,,,0.00,Rainwise IP-100,2017-10-23 00:59:00,
2017-10-22 20:04:00,54.7,47.0,30.13,SSE,157,2.3,2.3,75,0.00,,,0.00,Rainwise IP-100,2017-10-23 01:04:00,
2017-10-22 20:09:00,54.5,47.0,30.13,SSE,157,3.0,3.0,75,0.00,,,0.00,Rainwise IP-100,2017-10-23 01:09:00,
2017-10-22 20:14:00,54.4,46.0,30.13,SE,135,2.8,4.0,73,0.00,,,0.00,Rainwise IP-100,2017-10-23 01:14:00,
2017-10-22 20:19:00,54.4,46.0,30.13,SE,135,2.1,3.0,72,0.00,,,0.00,Rainwise IP-100,2017-10-23 01:19:00,
2017-10-22 20:24:00,54.5,46.0,30.13,SE,135,2.1,2.1,71,0.00,,,0.00,Rainwise IP-100,2017-10-23 01:24:00,
2017-10-22 20:29:00,54.0,45.0,30.13,SSE,157,1.9,2.0,72,0.00,,,0.00,Rainwise IP-100,2017-10-23 01:29:00,
2017-10-22 20:34:00,53.6,45.0,30.13,SSE,157,1.2,2.0,74,0.00,,,0.00,Rainwise IP-100,2017-10-23 01:34:00,
2017-10-22 20:39:00,53.3,45.0,30.13,SSE,157,1.2,1.2,76,0.00,,,0.00,Rainwise IP-100,2017-10-23 01:39:00,
2017-10-22 20:44:00,53.1,45.0,30.13,SSE,157,2.3,2.3,76,0.00,,,0.00,Rainwise IP-100,2017-10-23 01:44:00,
2017-10-22 20:49:00,53.0,45.0,30.13,SSE,157,2.6,2.6,76,0.00,,,0.00,Rainwise IP-100,2017-10-23 01:49:00,
2017-10-22 20:54:00,53.0,45.0,30.13,SSE,157,1.6,2.0,74,0.00,,,0.00,Rainwise IP-100,2017-10-23 01:54:00,